Lid_Strength_Index
-0 -0 -1 -1 -1 -1 -0 1 1 1 1 2 1 1 -1 -1 -0 0 1 1 2 1 1 2 1 2 4
-1 0 0 -0 -1 -1 0 1 1 2 2 2 3 2 -1 -0 1 2 2 2 3 1 2 2 3 3 5
2 0 0 -0 0 -0 0 2 2 2 3 3 3 3 4 1 2 2 3 3 3 2 3 3 4 5 4
2 0 0 -0 0 1 0 1 2 3 3 4 4 4 5 6 5 4 5 5 6 6 5 5 5 5 5
2 2 1 1 0 0 0 0 2 3 4 5 6 6 7 7 8 9 9 9 8 7 6 7 6 6 6
2 2 0 2 2 2 0 1 1 3 5 7 7 7 7 8 9 9 9 8 8 7 7 7 7 7 7
3 2 -0 1 2 2 1 1 2 3 5 6 7 7 8 8 8 9 8 8 8 8 7 7 8 7 7
3 2 1 0 0 1 1 2 3 3 5 6 6 7 7 8 8 8 8 9 9 8 9 9 9 9 9
3 3 0 0 1 1 1 2 3 4 5 6 6 6 7 7 7 8 8 9 10 10 10 10 10 11 11
4 2 -0 -0 1 1 2 2 3 4 5 6 6 7 6 6 7 7 8 9 10 10 11 12 12 12 12
3 2 0 1 1 1 1 2 2 4 5 5 6 6 7 7 7 7 8 9 10 11 12 12 12 13 13
4 2 0 1 2 2 2 2 2 3 4 5 5 6 7 7 7 7 8 9 10 10 11 12 12 13 14
5 4 2 2 2 3 3 3 3 2 4 5 5 6 6 7 7 7 8 9 10 10 11 12 12 13 13
6 4 3 2 2 2 2 3 3 3 4 5 5 6 7 7 7 7 8 9 9 10 11 11 13 13 13
6 5 3 3 3 3 3 4 4 4 4 5 5 6 7 7 7 8 8 8 10 9 9 10 13 13 14
7 6 6 5 6 5 3 3 4 4 4 5 6 6 7 8 8 8 7 8 8 10 9 9 10 11 13